STARLINK-11391, 62889

Orbit data source: Space-Track

STARLINK-11391, 62889 is a payload satellite owned by SpaceX/Seattle (US) in LEO that was launched on Tue, 04 Feb 2025 UTC via an FALCON 9 launch vehicle from the Air Force Eastern Test Range (AFETR). Payload-class satellites include a variety of spacecraft equipped with specific instruments for various scientific and technological missions. These include communications satellites like Starlink; space stations such as the ISS; scientific satellites like the Hubble; Earth observation satellites from companies like Planet Labs, Umbra, and HawkEye 360; GPS; miniature CubeSats for education and research; and military/defense satellites.

Loading next visibility...
Identifier
62889, 2025-024L
Orbit
LEO
Country
Flag of USUS
Related business
Manufacturer
SpaceX/Seattle
Mission
Operational Commercial Communications
Bus & Motor
STARLINK V2MD, Unknown motor
Mass
960 kg wet, ~910 kg dry
Launch date (UTC)
2025-02-04 (1 year ago)
Launch vehicle
FALCON 9
Launch site
Air Force Eastern Test Range (AFETR)
Object type
Payload
Rocket body
Debris
Shape & HBR
Box + 2 Pan, 18.1 m
Radar Cross Section
36.964 m², Large (>1 m²)

Expand to show TLE details & history
Last TLE update: 16 hours ago

TLE from 16 hours ago
0 STARLINK-11391
1 62889U 25024L   26129.82696674  .00165153  00000-0  12643-2 0  9993
2 62889  43.0001 172.7735 0000148   4.6981 355.3888 15.70855608 73089
Epoch: 2026-05-09T19:50Z
TLE epoch observation values (Epoch: 2026-05-09T19:50:49.926Z)
Latitude
-0.00001°
Longitude
7.42664°
Altitude
356.122 km
Speed
7.697 km/s
True Right ascension
11h 31m 05s
True Declination
0° 00' 00"
Sunlit
Object was in full shadow at epoch
Visualization orbit readout
Latitude
Unknown
Longitude
Unknown
Altitude
Unknown
Speed
Unknown
Apparent Right ascension
Unknown
Apparent Declination
Unknown
Sunlit
N/A
Visualization observer readout
Local Sidereal Time
19:36:32
Azimuth
Unknown
Elevation
Unknown
Doppler factor
Unknown
Orbital elements
Apogee altitude
358.532 km
Perigee altitude
358.332 km
Semi-major axis
6,736.569 km
Eccentricity
0.00001
Inclination
43.0001°
RAAN
172.7735°
Arg. of periapsis
4.6981°
True anomaly
355.38866°
Mean anomaly
355.3888°
Eccentric anomaly
355.38873°
Mean motion
3.92541 °/min
Orbital period
91.71 mins
BSTAR
0.0012643
Loading maneuver chart data...
Computing Atmospheric mass density...
Loading historical data...
Loading historical data...
Loading historical data...
Loading historical data...
Loading historical data...
Loading historical data...
Loading historical data...

Documentation

Showing up to 5 results
|